Time,TemperatureF,DewpointF,PressureIn,WindDirection,WindDirectionDegrees,WindSpeedMPH,WindSpeedGustMPH,Humidity,HourlyPrecipIn,Conditions,Clouds,dailyrainin,SoftwareType,DateUTC
2013-07-28 00:04:00,65.6,65.6,29.90,NE,45,0.0,0.0,100,0.00,,,0.00,WSDL version 423,2013-07-28 04:04:00,
2013-07-28 00:11:00,65.4,65.4,29.90,NE,45,0.0,0.0,100,0.00,,,0.00,WSDL version 423,2013-07-28 04:11:00,
2013-07-28 00:21:00,64.8,64.8,29.89,NE,45,0.0,0.0,100,0.00,,,0.00,WSDL version 423,2013-07-28 04:21:00,
2013-07-28 00:31:00,64.4,64.4,29.90,NE,45,0.0,0.0,100,0.00,,,0.00,WSDL version 423,2013-07-28 04:31:00,
2013-07-28 00:41:00,64.1,64.1,29.89,NE,45,0.0,0.0,100,0.00,,,0.00,WSDL version 423,2013-07-28 04:41:00,
2013-07-28 00:51:00,64.0,64.0,29.89,NE,45,0.0,0.0,100,0.00,,,0.00,WSDL version 423,2013-07-28 04:51:00,
2013-07-28 01:01:00,63.8,63.8,29.90,NE,45,0.0,0.0,100,0.00,,,0.00,WSDL version 423,2013-07-28 05:01:00,
2013-07-28 01:11:00,63.5,63.5,29.90,NE,45,0.0,0.0,100,0.00,,,0.00,WSDL version 423,2013-07-28 05:11:00,
2013-07-28 01:21:00,63.9,63.9,29.90,NE,45,0.0,0.0,100,0.00,,,0.00,WSDL version 423,2013-07-28 05:21:00,
2013-07-28 01:31:00,64.2,64.2,29.91,NE,45,0.0,0.0,100,0.00,,,0.00,WSDL version 423,2013-07-28 05:31:00,
2013-07-28 01:41:00,64.4,64.4,29.91,NE,45,0.0,0.0,100,0.00,,,0.00,WSDL version 423,2013-07-28 05:41:00,
2013-07-28 01:51:00,64.6,64.6,29.90,NE,45,0.0,0.0,100,0.00,,,0.00,WSDL version 423,2013-07-28 05:51:00,
2013-07-28 02:01:00,64.8,64.8,29.90,NE,45,0.0,0.0,100,0.00,,,0.00,WSDL version 423,2013-07-28 06:01:00,
2013-07-28 02:11:00,64.8,64.8,29.90,NE,45,0.0,0.0,100,0.00,,,0.00,WSDL version 423,2013-07-28 06:11:00,
2013-07-28 02:21:00,64.9,64.9,29.89,NE,45,0.0,0.0,100,0.00,,,0.00,WSDL version 423,2013-07-28 06:21:00,
2013-07-28 02:31:00,64.9,64.9,29.89,NE,45,0.0,0.0,100,0.00,,,0.00,WSDL version 423,2013-07-28 06:31:00,
2013-07-28 02:41:00,65.1,65.1,29.89,NE,45,0.0,0.0,100,0.00,,,0.00,WSDL version 423,2013-07-28 06:41:00,
2013-07-28 02:51:00,65.1,65.1,29.90,NE,45,0.0,0.0,100,0.00,,,0.00,WSDL version 423,2013-07-28 06:51:00,
2013-07-28 03:01:00,65.2,65.2,29.90,NE,45,0.0,0.0,100,0.00,,,0.00,WSDL version 423,2013-07-28 07:01:00,
2013-07-28 03:11:00,65.2,65.2,29.90,NE,45,0.0,0.0,100,0.00,,,0.00,WSDL version 423,2013-07-28 07:11:00,
2013-07-28 03:21:00,65.3,65.3,29.89,NE,45,0.0,0.0,100,0.00,,,0.00,WSDL version 423,2013-07-28 07:21:00,
2013-07-28 03:31:00,65.3,65.3,29.89,NE,45,0.0,0.0,100,0.00,,,0.00,WSDL version 423,2013-07-28 07:31:00,
2013-07-28 03:41:00,65.3,65.3,29.88,NE,45,0.0,0.0,100,0.00,,,0.00,WSDL version 423,2013-07-28 07:41:00,
2013-07-28 03:51:00,65.3,65.3,29.89,NE,45,0.0,0.0,100,0.00,,,0.00,WSDL version 423,2013-07-28 07:51:00,
2013-07-28 04:01:00,65.3,65.3,29.88,NE,45,0.0,0.0,100,0.00,,,0.00,WSDL version 423,2013-07-28 08:01:00,
2013-07-28 04:11:00,65.2,65.2,29.88,NE,45,0.0,0.0,100,0.00,,,0.00,WSDL version 423,2013-07-28 08:11:00,
2013-07-28 04:21:00,65.3,65.3,29.88,NE,45,0.0,0.0,100,0.00,,,0.00,WSDL version 423,2013-07-28 08:21:00,
2013-07-28 04:31:00,65.3,65.3,29.88,NE,45,0.0,0.0,100,0.00,,,0.00,WSDL version 423,2013-07-28 08:31:00,
2013-07-28 04:41:00,65.5,65.5,29.88,NE,45,0.0,0.0,100,0.00,,,0.00,WSDL version 423,2013-07-28 08:41:00,
2013-07-28 04:51:00,65.5,65.5,29.89,NE,45,0.0,0.0,100,0.00,,,0.00,WSDL version 423,2013-07-28 08:51:00,
2013-07-28 05:01:00,65.5,65.5,29.88,NE,45,0.0,0.0,100,0.00,,,0.00,WSDL version 423,2013-07-28 09:01:00,
2013-07-28 05:11:00,65.5,65.5,29.88,NE,45,0.0,0.0,100,0.00,,,0.00,WSDL version 423,2013-07-28 09:11:00,
2013-07-28 05:21:00,65.5,65.5,29.88,NE,45,0.0,0.0,100,0.00,,,0.00,WSDL version 423,2013-07-28 09:21:00,
2013-07-28 05:31:00,65.5,65.5,29.89,NE,45,0.0,0.0,100,0.00,,,0.00,WSDL version 423,2013-07-28 09:31:00,
2013-07-28 05:41:00,65.5,65.5,29.89,NE,45,0.0,0.0,100,0.00,,,0.00,WSDL version 423,2013-07-28 09:41:00,
2013-07-28 05:51:00,65.5,65.5,29.88,NE,45,0.0,0.0,100,0.00,,,0.00,WSDL version 423,2013-07-28 09:51:00,
2013-07-28 06:01:00,65.7,65.7,29.89,NE,45,0.0,0.0,100,0.00,,,0.00,WSDL version 423,2013-07-28 10:01:00,
2013-07-28 06:11:00,65.8,65.8,29.89,NE,45,0.0,0.0,100,0.00,,,0.00,WSDL version 423,2013-07-28 10:11:00,
2013-07-28 06:21:00,65.9,65.9,29.88,NE,45,0.0,0.0,100,0.00,,,0.00,WSDL version 423,2013-07-28 10:21:00,
2013-07-28 06:31:00,66.0,66.0,29.88,NE,45,0.0,0.0,100,0.00,,,0.00,WSDL version 423,2013-07-28 10:31:00,
2013-07-28 06:41:00,66.3,66.3,29.88,NE,45,0.0,0.0,100,0.00,,,0.00,WSDL version 423,2013-07-28 10:41:00,
2013-07-28 06:51:00,66.6,66.6,29.89,NE,45,0.0,0.0,100,0.00,,,0.00,WSDL version 423,2013-07-28 10:51:00,
2013-07-28 07:01:00,66.8,66.8,29.89,NE,45,0.0,0.0,100,0.00,,,0.00,WSDL version 423,2013-07-28 11:01:00,
2013-07-28 07:11:00,66.9,66.9,29.89,NE,45,0.0,0.0,100,0.00,,,0.00,WSDL version 423,2013-07-28 11:11:00,
2013-07-28 07:21:00,67.2,67.2,29.89,NE,45,0.0,0.0,100,0.00,,,0.00,WSDL version 423,2013-07-28 11:21:00,
2013-07-28 07:31:00,67.4,67.4,29.89,NE,45,0.0,0.0,100,0.00,,,0.00,WSDL version 423,2013-07-28 11:31:00,
2013-07-28 07:41:00,67.6,67.6,29.90,NE,45,0.0,0.0,100,0.00,,,0.00,WSDL version 423,2013-07-28 11:41:00,
2013-07-28 07:51:00,67.8,67.8,29.89,NE,45,0.0,0.0,100,0.00,,,0.00,WSDL version 423,2013-07-28 11:51:00,
2013-07-28 08:01:00,68.1,68.1,29.89,NE,45,0.0,0.0,100,0.00,,,0.00,WSDL version 423,2013-07-28 12:01:00,
2013-07-28 08:11:00,68.4,68.4,29.89,NE,45,0.0,0.0,100,0.00,,,0.00,WSDL version 423,2013-07-28 12:11:00,
2013-07-28 08:21:00,68.8,68.8,29.89,NE,45,0.0,0.0,100,0.00,,,0.00,WSDL version 423,2013-07-28 12:21:00,
2013-07-28 08:31:00,69.2,69.2,29.88,NE,45,0.0,0.0,100,0.00,,,0.00,WSDL version 423,2013-07-28 12:31:00,
2013-07-28 08:41:00,69.9,69.9,29.89,NE,45,0.0,0.0,100,0.00,,,0.00,WSDL version 423,2013-07-28 12:41:00,
2013-07-28 08:51:00,70.7,70.7,29.89,NE,45,0.0,0.0,100,0.00,,,0.00,WSDL version 423,2013-07-28 12:51:00,
2013-07-28 09:01:00,71.1,71.1,29.90,NE,45,0.0,0.0,100,0.00,,,0.00,WSDL version 423,2013-07-28 13:01:00,
2013-07-28 09:11:00,71.1,71.1,29.90,NE,45,0.0,0.0,100,0.00,,,0.00,WSDL version 423,2013-07-28 13:11:00,
2013-07-28 09:21:00,71.4,71.4,29.90,NE,45,0.0,0.0,100,0.00,,,0.00,WSDL version 423,2013-07-28 13:21:00,
2013-07-28 09:31:00,72.1,72.1,29.90,NE,45,0.0,0.0,100,0.00,,,0.00,WSDL version 423,2013-07-28 13:31:00,
2013-07-28 09:41:00,72.4,72.4,29.90,NE,45,0.0,0.0,100,0.00,,,0.00,WSDL version 423,2013-07-28 13:41:00,
2013-07-28 09:51:00,73.5,73.5,29.90,NE,45,0.0,0.0,100,0.00,,,0.00,WSDL version 423,2013-07-28 13:51:00,
2013-07-28 10:01:00,74.2,74.2,29.90,NE,45,0.0,0.0,100,0.00,,,0.00,WSDL version 423,2013-07-28 14:01:00,
2013-07-28 10:11:00,74.9,74.9,29.90,NE,45,0.0,2.7,100,0.00,,,0.00,WSDL version 423,2013-07-28 14:11:00,
2013-07-28 10:21:00,75.4,75.4,29.90,NE,45,0.0,2.7,100,0.00,,,0.00,WSDL version 423,2013-07-28 14:21:00,
2013-07-28 10:31:00,75.9,75.9,29.89,NE,45,0.0,0.0,100,0.00,,,0.00,WSDL version 423,2013-07-28 14:31:00,
2013-07-28 10:41:00,76.6,76.6,29.89,NE,45,0.0,3.1,100,0.00,,,0.00,WSDL version 423,2013-07-28 14:41:00,
2013-07-28 10:51:00,76.7,76.7,29.89,NE,45,0.0,0.0,100,0.00,,,0.00,WSDL version 423,2013-07-28 14:51:00,
2013-07-28 11:01:00,76.8,76.8,29.88,NE,45,0.0,0.0,100,0.00,,,0.00,WSDL version 423,2013-07-28 15:01:00,
2013-07-28 11:11:00,77.4,77.4,29.88,NE,45,0.0,0.0,100,0.00,,,0.00,WSDL version 423,2013-07-28 15:11:00,
2013-07-28 11:21:00,78.3,78.3,29.87,NE,45,0.0,0.0,100,0.00,,,0.00,WSDL version 423,2013-07-28 15:21:00,
2013-07-28 11:31:00,79.2,79.2,29.87,NE,45,0.0,0.0,100,0.00,,,0.00,WSDL version 423,2013-07-28 15:31:00,
2013-07-28 11:41:00,79.4,79.4,29.88,NE,45,0.0,0.0,100,0.00,,,0.00,WSDL version 423,2013-07-28 15:41:00,
2013-07-28 11:51:00,79.9,79.9,29.87,NE,45,0.0,2.2,100,0.00,,,0.00,WSDL version 423,2013-07-28 15:51:00,
2013-07-28 12:01:00,79.8,79.8,29.87,NE,45,0.0,0.0,100,0.00,,,0.00,WSDL version 423,2013-07-28 16:01:00,
2013-07-28 12:11:00,80.2,80.2,29.87,NE,45,0.0,0.0,100,0.00,,,0.00,WSDL version 423,2013-07-28 16:11:00,
2013-07-28 12:21:00,80.6,80.6,29.87,NE,45,0.0,0.0,100,0.00,,,0.00,WSDL version 423,2013-07-28 16:21:00,
2013-07-28 12:31:00,80.2,80.2,29.87,NE,45,0.0,0.0,100,0.00,,,0.00,WSDL version 423,2013-07-28 16:31:00,
2013-07-28 12:41:00,79.4,79.4,29.87,NE,45,0.0,0.0,100,0.00,,,0.00,WSDL version 423,2013-07-28 16:41:00,
2013-07-28 12:51:00,80.7,80.7,29.87,NE,45,0.0,0.0,100,0.00,,,0.00,WSDL version 423,2013-07-28 16:51:00,
2013-07-28 13:01:00,82.3,82.3,29.87,NNE,23,0.0,3.6,100,0.00,,,0.00,WSDL version 423,2013-07-28 17:01:00,
2013-07-28 13:11:00,81.4,81.4,29.87,NNE,23,0.0,0.0,100,0.00,,,0.00,WSDL version 423,2013-07-28 17:11:00,
2013-07-28 13:21:00,83.5,83.5,29.87,NNE,23,0.0,0.0,100,0.00,,,0.00,WSDL version 423,2013-07-28 17:21:00,
2013-07-28 13:31:00,83.0,83.0,29.87,NNE,23,0.0,0.0,100,0.00,,,0.00,WSDL version 423,2013-07-28 17:31:00,
2013-07-28 13:41:00,83.8,83.8,29.87,NNE,23,0.0,0.0,100,0.00,,,0.00,WSDL version 423,2013-07-28 17:41:00,
2013-07-28 13:51:00,84.3,84.3,29.86,NNE,23,0.0,0.0,100,0.00,,,0.00,WSDL version 423,2013-07-28 17:51:00,
2013-07-28 14:01:00,85.4,85.4,29.87,NNE,23,0.0,2.7,100,0.00,,,0.00,WSDL version 423,2013-07-28 18:01:00,
2013-07-28 14:11:00,85.0,85.0,29.87,NNE,23,0.0,0.0,100,0.00,,,0.00,WSDL version 423,2013-07-28 18:11:00,
2013-07-28 14:21:00,82.2,82.2,29.86,NNE,23,0.0,2.2,100,0.00,,,0.00,WSDL version 423,2013-07-28 18:21:00,
2013-07-28 14:31:00,81.2,81.2,29.86,NNE,23,0.0,0.0,100,0.00,,,0.00,WSDL version 423,2013-07-28 18:31:00,
2013-07-28 14:41:00,83.5,83.5,29.87,NNE,23,0.0,3.1,100,0.00,,,0.00,WSDL version 423,2013-07-28 18:41:00,
2013-07-28 14:51:00,82.5,82.5,29.87,NNE,23,0.0,2.7,100,0.00,,,0.00,WSDL version 423,2013-07-28 18:51:00,
2013-07-28 15:01:00,81.7,81.7,29.86,NNE,23,0.0,2.7,100,0.00,,,0.00,WSDL version 423,2013-07-28 19:01:00,
2013-07-28 15:11:00,83.7,83.7,29.86,NNE,23,0.0,0.0,100,0.00,,,0.00,WSDL version 423,2013-07-28 19:11:00,
2013-07-28 15:21:00,81.9,81.9,29.86,NNE,23,0.0,0.0,100,0.00,,,0.00,WSDL version 423,2013-07-28 19:21:00,
2013-07-28 15:31:00,81.3,81.3,29.86,NNE,23,0.0,0.0,100,0.00,,,0.00,WSDL version 423,2013-07-28 19:31:00,
2013-07-28 15:41:00,81.8,81.8,29.86,NNE,23,0.0,2.7,100,0.00,,,0.00,WSDL version 423,2013-07-28 19:41:00,
2013-07-28 15:51:00,80.1,80.1,29.86,NNE,23,0.0,0.0,100,0.00,,,0.00,WSDL version 423,2013-07-28 19:51:00,
2013-07-28 16:01:00,80.5,80.5,29.86,NNE,23,0.0,0.0,100,0.00,,,0.00,WSDL version 423,2013-07-28 20:01:00,
2013-07-28 16:11:00,79.7,79.7,29.86,NNE,23,0.0,0.0,100,0.00,,,0.00,WSDL version 423,2013-07-28 20:11:00,
2013-07-28 16:21:00,79.3,79.3,29.87,NNE,23,0.0,0.0,100,0.00,,,0.00,WSDL version 423,2013-07-28 20:21:00,
2013-07-28 16:31:00,78.4,78.4,29.86,NNE,23,0.0,0.0,100,0.00,,,0.00,WSDL version 423,2013-07-28 20:31:00,
2013-07-28 16:41:00,77.1,77.1,29.87,NNE,23,0.0,0.0,100,0.00,,,0.00,WSDL version 423,2013-07-28 20:41:00,
2013-07-28 16:51:00,76.6,76.6,29.87,NNE,23,0.0,0.0,100,0.00,,,0.00,WSDL version 423,2013-07-28 20:51:00,
2013-07-28 17:01:00,76.2,76.2,29.87,NNE,23,0.0,0.0,100,0.00,,,0.00,WSDL version 423,2013-07-28 21:01:00,
2013-07-28 17:11:00,76.1,76.1,29.88,NNE,23,0.0,0.0,100,0.00,,,0.00,WSDL version 423,2013-07-28 21:11:00,
2013-07-28 17:21:00,75.6,75.6,29.87,NNE,23,0.0,0.0,100,0.00,,,0.00,WSDL version 423,2013-07-28 21:21:00,
2013-07-28 17:31:00,74.9,74.9,29.87,NNE,23,0.0,0.0,100,0.00,,,0.00,WSDL version 423,2013-07-28 21:31:00,
2013-07-28 17:41:00,74.3,74.3,29.88,NNE,23,0.0,0.0,100,0.00,,,0.00,WSDL version 423,2013-07-28 21:41:00,
2013-07-28 17:51:00,73.7,73.7,29.87,NNE,23,0.0,0.0,100,0.00,,,0.00,WSDL version 423,2013-07-28 21:51:00,
2013-07-28 18:01:00,73.5,73.5,29.88,NNE,23,0.0,0.0,100,0.00,,,0.00,WSDL version 423,2013-07-28 22:01:00,
2013-07-28 18:11:00,73.0,73.0,29.88,NNE,23,0.0,0.0,100,0.00,,,0.00,WSDL version 423,2013-07-28 22:11:00,
2013-07-28 18:21:00,72.6,72.6,29.88,NNE,23,0.0,0.0,100,0.00,,,0.00,WSDL version 423,2013-07-28 22:21:00,
2013-07-28 18:31:00,72.2,72.2,29.88,NNE,23,0.0,0.0,100,0.00,,,0.00,WSDL version 423,2013-07-28 22:31:00,
2013-07-28 18:41:00,71.8,71.8,29.88,NNE,23,0.0,0.0,100,0.00,,,0.00,WSDL version 423,2013-07-28 22:41:00,
2013-07-28 18:51:00,71.6,71.6,29.89,NNE,23,0.0,0.0,100,0.00,,,0.00,WSDL version 423,2013-07-28 22:51:00,
2013-07-28 19:01:00,71.3,71.3,29.89,NNE,23,0.0,0.0,100,0.00,,,0.00,WSDL version 423,2013-07-28 23:01:00,
2013-07-28 19:11:00,70.9,70.9,29.89,NNE,23,0.0,0.0,100,0.00,,,0.00,WSDL version 423,2013-07-28 23:11:00,
2013-07-28 19:21:00,70.5,70.5,29.90,NNE,23,0.0,0.0,100,0.00,,,0.00,WSDL version 423,2013-07-28 23:21:00,
2013-07-28 19:31:00,70.2,70.2,29.90,NNE,23,0.0,0.0,100,0.00,,,0.00,WSDL version 423,2013-07-28 23:31:00,
2013-07-28 19:41:00,69.9,69.9,29.90,NNE,23,0.0,0.0,100,0.00,,,0.00,WSDL version 423,2013-07-28 23:41:00,
2013-07-28 19:51:00,69.5,69.5,29.90,NNE,23,0.0,0.0,100,0.00,,,0.00,WSDL version 423,2013-07-28 23:51:00,
2013-07-28 20:01:00,69.4,69.4,29.90,NNE,23,0.0,0.0,100,0.00,,,0.00,WSDL version 423,2013-07-29 00:01:00,
2013-07-28 20:13:00,69.0,69.0,29.90,NNE,23,0.0,0.0,100,0.00,,,0.00,WSDL version 423,2013-07-29 00:13:00,
2013-07-28 20:23:00,68.9,68.9,29.90,NNE,23,0.0,0.0,100,0.00,,,0.00,WSDL version 423,2013-07-29 00:23:00,
2013-07-28 20:33:00,68.7,68.7,29.91,NNE,23,0.0,0.0,100,0.00,,,0.00,WSDL version 423,2013-07-29 00:33:00,
2013-07-28 20:43:00,68.5,68.5,29.91,NNE,23,0.0,0.0,100,0.00,,,0.00,WSDL version 423,2013-07-29 00:43:00,
2013-07-28 20:53:00,68.2,68.2,29.91,NNE,23,0.0,0.0,100,0.00,,,0.00,WSDL version 423,2013-07-29 00:53:00,
2013-07-28 21:03:00,68.0,68.0,29.91,NNE,23,0.0,0.0,100,0.00,,,0.00,WSDL version 423,2013-07-29 01:03:00,
2013-07-28 21:13:00,67.8,67.8,29.91,NNE,23,0.0,0.0,100,0.00,,,0.00,WSDL version 423,2013-07-29 01:13:00,
2013-07-28 21:23:00,67.5,67.5,29.91,NNE,23,0.0,0.0,100,0.00,,,0.00,WSDL version 423,2013-07-29 01:23:00,
2013-07-28 21:33:00,67.4,67.4,29.91,NNE,23,0.0,0.0,100,0.00,,,0.00,WSDL version 423,2013-07-29 01:33:00,
2013-07-28 21:43:00,67.3,67.3,29.91,NNE,23,0.0,0.0,100,0.00,,,0.00,WSDL version 423,2013-07-29 01:43:00,
2013-07-28 21:53:00,67.1,67.1,29.91,NNE,23,0.0,0.0,100,0.00,,,0.00,WSDL version 423,2013-07-29 01:53:00,
2013-07-28 22:03:00,67.0,67.0,29.90,NNE,23,0.0,0.0,100,0.00,,,0.00,WSDL version 423,2013-07-29 02:03:00,
2013-07-28 22:13:00,66.9,66.9,29.90,NNE,23,0.0,0.0,100,0.00,,,0.00,WSDL version 423,2013-07-29 02:13:00,
2013-07-28 22:23:00,66.9,66.9,29.90,NNE,23,0.0,0.0,100,0.00,,,0.00,WSDL version 423,2013-07-29 02:23:00,
2013-07-28 22:33:00,66.7,66.7,29.89,NNE,23,0.0,0.0,100,0.00,,,0.00,WSDL version 423,2013-07-29 02:33:00,
2013-07-28 22:43:00,66.6,66.6,29.89,NNE,23,0.0,0.0,100,0.00,,,0.00,WSDL version 423,2013-07-29 02:43:00,
2013-07-28 22:53:00,66.7,66.7,29.90,NNE,23,0.0,0.0,100,0.00,,,0.00,WSDL version 423,2013-07-29 02:53:00,
2013-07-28 23:03:00,66.6,66.6,29.90,NNE,23,0.0,0.0,100,0.00,,,0.00,WSDL version 423,2013-07-29 03:03:00,
2013-07-28 23:13:00,66.6,66.6,29.90,NNE,23,0.0,0.0,100,0.00,,,0.00,WSDL version 423,2013-07-29 03:13:00,
2013-07-28 23:24:00,66.6,66.6,29.91,NNE,23,0.0,0.0,100,0.00,,,0.00,WSDL version 423,2013-07-29 03:24:00,
2013-07-28 23:34:00,66.5,66.5,29.91,NNE,23,0.0,0.0,100,0.00,,,0.00,WSDL version 423,2013-07-29 03:34:00,
2013-07-28 23:46:00,66.4,66.4,29.92,NNE,23,0.0,0.0,100,0.00,,,0.00,WSDL version 423,2013-07-29 03:46:00,
2013-07-28 23:56:00,66.4,66.4,29.92,NNE,23,0.0,0.0,100,0.00,,,0.00,WSDL version 423,2013-07-29 03:56:00,